Theta_e
341 339 336 333 331 329 326 324 324 325 324 321 322 322 322 323 324 325 325 324 324 323 323 322 321 322 319 318 317 318 316 315 310 313 316 317 315 315 315 315 315 312 312
337 335 332 330 328 325 323 323 324 322 323 322 322 322 322 322 324 323 322 322 321 320 321 321 318 318 315 314 313 313 314 314 313 310 313 313 312 315 313 312 312 313 312
334 331 328 326 324 323 322 323 322 322 322 322 322 321 321 321 322 323 322 321 321 321 321 320 318 315 311 310 309 309 312 313 314 312 310 312 311 312 310 311 310 310 312
329 326 324 323 322 322 322 322 322 322 322 322 322 321 322 321 318 322 322 322 322 321 321 320 317 311 309 307 305 308 310 311 312 310 308 307 309 310 310 308 307 310 310
325 323 322 322 322 321 321 321 321 322 322 322 321 319 316 312 307 308 315 322 321 320 319 315 314 313 310 307 304 304 306 308 310 308 306 307 307 307 307 309 307 309 310
322 320 320 320 320 320 320 319 320 321 322 321 320 316 312 307 301 302 306 318 320 319 316 313 313 308 304 304 306 307 307 305 308 308 308 306 307 309 310 308 309 308 305
319 319 319 320 319 319 318 319 320 321 321 320 318 316 311 306 299 299 301 311 320 318 316 311 308 306 300 299 301 306 312 308 308 308 308 306 309 311 311 308 309 309 308
318 318 319 318 318 318 318 319 319 318 317 316 316 314 309 301 297 296 298 309 320 318 314 310 306 304 298 297 299 309 310 313 311 310 310 311 313 313 311 310 311 310 310
317 317 318 318 317 317 317 318 319 316 315 315 315 316 309 302 296 295 299 310 318 314 303 302 302 301 295 295 300 305 306 308 309 307 305 303 301 300 302 307 308 306 305
316 317 317 318 317 316 318 318 319 318 316 315 315 315 308 303 294 295 297 307 312 312 304 300 297 297 294 294 297 301 301 302 301 305 308 311 308 311 308 313 310 306 304
317 317 318 318 318 319 318 318 320 318 317 315 315 314 312 304 299 295 295 302 303 307 303 300 302 295 294 294 294 299 298 296 301 309 309 310 309 310 311 314 314 309 304
317 317 317 318 317 318 317 317 316 315 314 314 314 312 308 308 301 295 294 295 297 306 303 302 302 294 294 295 295 296 294 299 304 303 302 302 303 306 308 311 312 313 311
316 315 316 317 317 317 315 315 315 316 314 313 314 313 312 308 304 297 296 296 299 302 303 301 297 295 294 299 298 297 299 303 302 301 300 301 303 305 307 310 310 309 310
315 314 315 314 314 315 315 316 313 312 314 313 312 310 304 298 296 295 298 300 300 301 299 300 302 300 298 300 303 303 301 302 302 301 301 302 303 302 302 305 305 304 305
313 313 313 314 307 302 298 304 300 294 297 305 306 299 302 294 289 290 290 292 293 294 292 304 302 302 301 301 302 302 300 301 300 301 301 300 300 301 300 302 301 300 302
312 312 311 311 309 307 301 296 290 291 290 290 291 295 291 290 290 291 290 290 290 290 300 299 299 299 298 299 299 299 300 299 299 300 300 300 299 300 299 300 300 297 297
311 312 311 310 308 306 304 301 295 291 290 289 289 289 289 289 290 291 291 290 290 293 298 298 297 297 297 297 298 298 297 298 300 299 299 299 299 300 299 298 298 296 296
313 305 312 311 310 309 308 305 302 300 297 293 289 290 288 288 288 289 290 290 298 296 297 296 296 296 296 296 296 297 297 297 297 298 298 299 298 298 298 297 297 296 295
311 312 313 313 312 311 310 309 307 305 301 296 293 291 289 288 289 290 291 298 297 296 296 295 296 296 295 296 296 297 298 296 295 296 297 297 297 297 296 297 296 291 292
313 304 308 312 311 311 309 308 305 305 302 300 301 300 299 294 299 298 298 297 296 295 295 295 295 295 296 295 295 294 293 293 293 294 295 296 296 295 296 296 296 294 295
312 311 297 310 311 310 310 307 306 305 304 303 299 293 285 301 300 298 296 295 295 295 295 295 293 294 294 293 292 291 290 291 291 292 293 295 295 293 295 295 295 295 295
311 311 311 309 311 310 310 308 307 305 304 303 300 295 288 300 299 297 296 296 296 296 296 296 294 293 292 292 291 289 287 287 289 290 292 293 294 293 293 293 293 294 293
309 309 310 309 310 302 309 308 306 305 303 303 299 298 299 300 299 297 295 296 296 296 296 295 293 292 292 291 290 288 285 285 287 290 289 292 293 291 292 292 291 292 291
309 308 309 308 307 308 308 307 306 300 303 302 301 301 301 301 299 298 296 296 296 295 296 294 293 291 289 289 288 287 285 284 287 288 288 290 292 291 291 291 290 291 291
310 309 308 307 306 307 306 306 305 304 303 303 302 301 301 301 298 297 296 296 295 294 294 293 293 291 289 286 286 285 284 283 285 284 288 291 290 292 290 290 290 290 290
311 309 307 307 306 307 305 305 305 304 302 301 302 302 301 300 298 297 296 295 294 294 293 293 291 290 288 286 284 283 283 283 284 284 285 292 289 289 289 289 289 289 289
Wind_Speed
14 16 15 14 15 12 11 10 9 7 7 7 7 7 7 6 5 4 4 6 6 5 5 6 6 7 6 7 7 7 7 7 8 9 6 6 9 11 13 12 12 12 12
15 16 16 15 14 13 12 11 9 7 6 6 7 7 8 6 5 6 7 6 6 6 6 6 8 7 9 8 7 8 7 7 8 11 7 7 11 10 14 15 13 12 13
16 16 15 15 13 12 11 10 9 7 7 7 7 7 8 7 5 6 6 6 6 5 5 5 5 7 7 6 7 7 6 6 6 7 9 9 10 10 13 12 13 13 11
17 16 15 14 13 12 10 9 9 8 8 7 7 7 7 9 11 7 6 5 5 5 5 6 8 8 7 7 7 6 6 7 6 7 8 8 8 10 9 11 12 10 12
16 16 15 14 13 12 11 10 8 7 7 8 8 10 11 10 8 9 9 6 6 6 7 9 7 9 14 11 6 8 8 6 5 6 8 6 7 9 10 9 10 10 12
16 16 14 14 13 12 12 9 8 7 7 8 9 11 9 7 9 11 9 6 6 5 6 8 4 13 13 16 18 17 11 6 4 3 4 7 9 9 9 10 9 7 9
17 16 14 13 13 12 12 10 8 8 8 8 10 11 9 7 10 11 11 6 4 4 7 6 7 8 11 11 15 19 7 2 7 4 6 7 9 8 8 11 11 11 10
17 16 14 14 13 12 11 10 10 8 7 7 7 10 8 7 9 9 11 5 4 3 8 7 7 7 8 10 10 10 11 3 5 5 5 7 8 7 6 5 10 10 8
17 15 14 14 13 12 11 9 11 9 7 6 6 9 9 6 8 9 8 6 4 8 10 8 6 6 8 10 9 10 10 8 10 12 11 13 11 11 8 4 8 9 8
16 15 14 14 13 12 10 9 8 8 7 7 7 8 11 7 9 12 11 7 6 4 7 6 11 6 7 8 6 8 9 10 12 13 11 4 5 5 4 4 4 6 7
17 15 13 13 13 10 10 9 5 8 8 6 7 8 8 7 6 9 12 6 4 4 6 6 4 7 5 9 6 6 6 10 12 6 6 5 4 5 5 5 5 3 4
16 15 14 12 10 9 11 6 9 8 5 6 6 8 6 5 6 5 6 6 7 4 4 2 3 9 9 7 7 11 14 11 6 6 6 6 5 5 7 4 7 6 2
17 15 13 12 11 9 8 6 8 8 6 6 5 5 7 6 5 4 3 6 6 4 4 6 9 9 10 7 3 8 8 7 6 7 6 6 6 5 7 3 5 7 7
17 14 12 12 10 9 7 5 6 5 2 3 4 6 8 7 7 6 6 6 10 6 9 7 5 7 1 4 4 6 7 7 7 6 6 7 7 6 6 5 3 3 4
15 13 12 9 12 11 10 7 9 8 6 6 7 7 6 7 4 3 4 5 5 6 8 2 4 4 5 6 5 6 6 7 8 6 6 7 8 7 8 5 7 7 2
14 11 9 11 9 9 9 10 15 11 13 13 15 11 8 9 4 5 7 9 11 8 0 5 5 6 6 7 7 7 6 8 7 7 6 7 8 7 8 6 5 7 9
13 12 10 10 9 8 8 8 8 7 14 14 14 15 12 6 2 2 7 10 13 10 5 5 5 6 6 6 6 6 6 6 7 6 6 7 8 8 8 7 7 6 9
12 12 9 9 9 10 10 10 8 7 7 5 7 6 6 2 3 6 7 5 2 3 5 5 5 5 6 6 6 6 5 5 7 7 7 7 9 9 8 8 9 5 9
11 8 8 7 7 8 10 8 7 8 8 7 5 2 2 5 7 8 11 6 5 5 4 5 5 5 5 5 5 5 5 6 7 8 7 8 8 9 7 8 7 8 7
7 12 8 7 7 8 9 8 7 6 8 7 7 6 5 4 3 5 5 5 5 5 4 5 5 4 4 5 6 7 8 8 8 8 8 8 6 8 8 8 8 9 7
7 5 5 8 7 7 9 8 9 7 5 5 7 5 4 2 5 5 6 5 5 5 5 5 6 5 6 7 7 7 8 8 8 9 9 8 7 9 9 7 8 8 7
6 4 6 7 6 6 5 8 9 7 7 6 6 4 4 0 5 6 6 5 5 5 4 5 6 7 7 7 7 7 8 8 8 9 9 11 7 9 9 8 9 7 8
7 6 5 6 6 6 6 8 10 7 7 7 7 6 4 4 5 5 6 5 4 5 5 5 6 7 7 7 7 7 7 7 8 9 9 11 8 8 9 7 10 8 9
8 5 5 8 6 5 5 8 7 8 8 6 7 5 5 4 7 6 5 5 5 5 5 6 7 9 7 7 7 7 6 7 7 8 12 9 8 8 9 8 10 9 8
4 5 6 8 6 4 6 6 8 8 7 6 6 5 5 6 6 5 5 5 6 5 7 6 5 9 11 12 11 12 10 10 9 9 8 9 11 10 10 8 10 9 11
3 5 7 7 5 4 6 6 5 7 7 7 5 4 5 6 6 5 5 5 5 6 7 6 8 11 11 10 11 9 11 12 12 14 10 6 8 8 7 9 12 8 9
Wind_Direction
133 126 120 116 110 111 111 113 114 119 115 113 111 105 100 94 93 106 102 94 81 69 35 56 38 36 9 18 357 356 351 351 332 325 326 339 352 349 348 350 349 343 331
131 125 120 120 120 119 119 118 111 103 104 101 98 100 97 94 88 74 63 66 60 49 38 44 49 33 23 16 356 350 343 352 336 327 330 357 359 3 354 345 344 343 332
129 120 125 120 120 114 109 108 108 109 95 94 95 97 107 110 92 74 74 77 74 59 33 28 70 51 26 12 348 341 338 333 327 341 346 8 347 347 340 340 343 331 333
129 127 120 115 115 109 112 108 106 107 104 100 98 102 92 65 37 39 83 66 64 75 44 20 43 55 34 13 349 330 335 322 351 4 349 341 335 336 332 339 339 341 328
125 120 116 116 116 119 114 106 108 109 110 111 99 79 65 57 36 16 352 64 51 49 51 26 62 63 36 14 345 326 315 317 331 358 347 334 335 342 339 331 321 329 335
124 120 124 124 120 115 110 111 116 111 106 106 97 86 78 70 26 26 8 343 60 51 54 39 22 47 17 354 343 324 287 265 292 320 320 327 323 324 331 332 330 329 348
127 127 126 124 124 121 121 119 110 95 81 87 91 95 85 68 29 16 359 325 83 68 73 49 22 35 20 351 338 317 356 77 241 290 306 306 313 310 326 329 335 340 342
128 124 129 131 121 122 120 114 106 95 97 98 105 107 100 62 36 9 345 301 321 97 88 61 50 41 12 355 330 346 342 321 330 311 260 292 290 306 308 304 320 335 349
122 130 129 125 126 120 123 130 117 115 119 128 115 105 90 61 23 12 354 308 56 80 79 64 69 53 351 352 347 355 343 332 326 313 311 305 290 287 282 316 358 353 350
132 126 126 126 123 126 129 124 121 141 134 121 106 93 102 79 29 19 9 18 26 90 119 130 72 61 349 340 348 327 338 324 321 317 317 341 335 345 338 44 8 8 352
117 117 120 120 120 126 113 116 139 98 91 101 100 87 92 98 58 38 26 46 1 355 51 32 34 0 349 323 332 294 315 312 304 323 3 353 336 332 354 17 33 69 7
118 119 118 120 125 117 121 130 103 102 111 133 152 138 123 115 108 75 41 21 350 0 46 48 345 340 330 315 314 309 326 323 347 356 358 345 341 339 340 41 27 16 200
118 124 127 118 117 117 112 134 138 151 159 171 170 156 140 127 90 77 342 308 334 17 12 313 288 300 299 301 317 289 340 360 354 2 359 346 337 339 328 23 52 13 0
123 122 116 118 132 136 148 167 91 45 117 117 100 71 94 72 53 17 4 18 360 30 2 321 275 354 344 297 10 38 19 5 354 357 352 342 337 357 340 353 36 14 354
126 128 131 124 94 83 61 65 86 54 30 70 65 65 86 88 79 20 348 355 346 334 327 4 29 12 22 23 17 31 29 4 358 352 356 354 351 358 348 356 23 351 16
135 131 141 124 119 116 101 83 53 69 69 67 60 88 66 99 116 351 329 323 320 330 327 39 34 24 28 21 17 18 25 4 356 356 356 359 351 352 352 355 28 3 349
139 141 134 127 131 124 127 119 116 73 70 63 71 75 75 112 108 306 310 318 314 354 46 43 40 30 22 29 9 10 18 7 352 353 355 2 353 351 355 360 1 13 2
134 129 140 138 147 151 148 135 138 136 121 99 50 84 89 88 267 271 277 284 355 76 62 49 36 33 19 31 9 6 17 11 359 352 360 5 359 350 352 358 4 7 15
136 151 133 137 153 130 125 133 123 124 125 117 127 182 204 271 294 316 326 57 52 50 50 65 43 37 23 16 10 3 14 14 7 358 359 357 2 349 352 357 4 352 22
144 121 137 126 131 137 131 132 123 121 127 150 167 147 168 163 181 98 64 57 60 50 25 58 66 34 32 14 15 16 20 17 8 357 352 354 4 349 347 0 359 360 18
129 115 109 136 158 147 140 133 130 137 137 122 75 66 65 41 101 84 87 70 54 62 40 28 46 39 32 27 26 19 23 14 6 354 345 342 15 352 343 8 354 10 8
126 135 152 163 139 133 128 123 124 135 117 115 107 97 30 22 99 100 91 80 84 68 54 34 60 42 42 30 31 23 22 13 355 351 346 334 14 354 346 12 353 8 2
149 178 155 123 111 118 136 130 117 126 138 145 128 151 196 103 100 96 94 93 87 82 72 57 55 54 29 42 29 40 21 8 336 353 338 326 4 4 350 12 354 7 7
153 175 140 127 133 148 135 122 125 132 133 159 150 147 120 129 79 79 94 96 92 83 75 86 77 68 48 36 31 28 27 3 328 344 329 326 350 16 354 5 359 5 14
139 163 142 119 130 163 112 117 137 142 153 153 124 129 136 119 109 108 114 103 109 100 86 68 63 76 64 49 34 21 2 348 341 334 332 317 13 15 6 1 5 4 25
96 89 97 108 130 109 127 146 140 131 128 115 128 142 134 133 121 116 113 116 102 101 103 101 80 66 62 46 26 12 0 352 345 339 330 12 30 358 9 2 15 359 17